| time (UTC) | temp F | wind direction | speed MPH | gust MPH | rain 1hr in | rain 24hr in | rain mn in | humidity % | barometer mb |
| 20260510032104 | 55 | 169 | 1.0 | 2.0 | 0.00 | 0.39 | 0.05 | 3 | 1010.6 |
| 20260510031605 | 55 | 169 | 1.0 | 2.0 | 0.00 | 0.39 | 0.05 | 3 | 1010.6 |
| 20260510031103 | 55 | 169 | 1.0 | 2.0 | 0.00 | 0.39 | 0.05 | 3 | 1010.7 |
| 20260510030604 | 55 | 169 | 1.0 | 2.0 | 0.00 | 0.39 | 0.05 | 3 | 1010.7 |
| 20260510030104 | 55 | 169 | 0.0 | 2.0 | 0.00 | 0.39 | 0.05 | 3 | 1010.7 |
| 20260510025604 | 55 | 169 | 1.0 | 3.0 | 0.00 | 0.39 | 0.05 | 3 | 1010.6 |
| 20260510025104 | 55 | 169 | 2.0 | 3.0 | 0.00 | 0.39 | 0.05 | 3 | 1010.7 |
| 20260510024604 | 55 | 155 | 2.0 | 5.0 | 0.00 | 0.39 | 0.05 | 3 | 1010.7 |
| 20260510024104 | 55 | 167 | 2.0 | 3.0 | 0.00 | 0.39 | 0.05 | 3 | 1010.7 |
| 20260510023604 | 56 | 186 | 1.0 | 3.0 | 0.00 | 0.39 | 0.05 | 3 | 1010.5 |
| 20260510023103 | 56 | 187 | 1.0 | 2.0 | 0.00 | 0.39 | 0.05 | 3 | 1010.5 |
| 20260510022604 | 56 | 188 | 0.0 | 1.0 | 0.00 | 0.39 | 0.05 | 3 | 1010.5 |
| 20260510022104 | 56 | 188 | 0.0 | 0.0 | 0.00 | 0.39 | 0.05 | 3 | 1010.6 |
| 20260510021104 | 56 | 188 | 1.0 | 5.0 | 0.00 | 0.39 | 0.05 | 3 | 1010.5 |
| 20260510020604 | 56 | 178 | 2.0 | 3.0 | 0.00 | 0.39 | 0.05 | 3 | 1010.6 |
| 20260510020104 | 56 | 175 | 1.0 | 3.0 | 0.00 | 0.39 | 0.05 | 3 | 1010.6 |
| 20260510015604 | 56 | 182 | 2.0 | 3.0 | 0.00 | 0.39 | 0.05 | 3 | 1010.7 |
| 20260510015104 | 56 | 178 | 2.0 | 5.0 | 0.00 | 0.39 | 0.05 | 3 | 1010.7 |
| 20260510014604 | 57 | 152 | 3.0 | 6.0 | 0.00 | 0.39 | 0.05 | 3 | 1010.7 |
| 20260510014104 | 57 | 171 | 3.0 | 5.0 | 0.00 | 0.39 | 0.05 | 3 | 1010.7 |
| 20260510013603 | 57 | 173 | 3.0 | 5.0 | 0.00 | 0.39 | 0.05 | 3 | 1010.6 |
| 20260510013104 | 57 | 179 | 1.0 | 3.0 | 0.00 | 0.39 | 0.05 | 3 | 1010.7 |
| 20260510012604 | 57 | 186 | 2.0 | 3.0 | 0.00 | 0.39 | 0.05 | 3 | 1010.7 |
| 20260510012104 | 57 | 150 | 1.0 | 3.0 | 0.00 | 0.39 | 0.05 | 3 | 1010.7 |
| 20260510011104 | 57 | 150 | 2.0 | 3.0 | 0.00 | 0.39 | 0.05 | 3 | 1011.0 |
| 20260510010604 | 57 | 183 | 3.0 | 5.0 | 0.00 | 0.39 | 0.05 | 3 | 1011.0 |
| 20260510010104 | 57 | 158 | 2.0 | 5.0 | 0.00 | 0.39 | 0.05 | 3 | 1011.0 |
| 20260510005604 | 58 | 181 | 2.0 | 5.0 | 0.00 | 0.39 | 0.05 | 3 | 1011.1 |
| 20260510005103 | 58 | 170 | 3.0 | 6.0 | 0.00 | 0.39 | 0.05 | 3 | 1011.1 |
| 20260510004604 | 58 | 183 | 3.0 | 6.0 | 0.00 | 0.39 | 0.05 | 3 | 1011.2 |
| 20260510004104 | 58 | 181 | 4.0 | 6.0 | 0.01 | 0.39 | 0.05 | 3 | 1011.3 |
| 20260510003604 | 58 | 169 | 2.0 | 5.0 | 0.01 | 0.39 | 0.05 | 3 | 1011.4 |
| 20260510003104 | 58 | 154 | 2.0 | 3.0 | 0.01 | 0.39 | 0.05 | 3 | 1011.4 |
| 20260510002604 | 59 | 181 | 2.0 | 3.0 | 0.01 | 0.39 | 0.05 | 3 | 1011.6 |
| 20260510002104 | 59 | 200 | 2.0 | 3.0 | 0.01 | 0.39 | 0.05 | 3 | 1011.6 |
| 20260510001604 | 59 | 180 | 3.0 | 5.0 | 0.01 | 0.39 | 0.05 | 3 | 1011.6 |
| 20260510001104 | 59 | 191 | 2.0 | 3.0 | 0.01 | 0.39 | 0.05 | 3 | 1011.8 |
| 20260510000604 | 59 | 185 | 2.0 | 3.0 | 0.01 | 0.39 | 0.05 | 3 | 1011.8 |
| 20260510000104 | 59 | 192 | 2.0 | 5.0 | 0.01 | 0.39 | 0.05 | 3 | 1012.0 |
| 20260509235603 | 59 | 167 | 3.0 | 6.0 | 0.02 | 0.39 | 0.05 | 3 | 1012.1 |
| 20260509235104 | 59 | 170 | 2.0 | 5.0 | 0.02 | 0.39 | 0.05 | 3 | 1012.2 |
| 20260509234604 | 59 | 178 | 2.0 | 3.0 | 0.02 | 0.39 | 0.05 | 3 | 1012.3 |
| 20260509234104 | 59 | 175 | 2.0 | 3.0 | 0.02 | 0.39 | 0.04 | 3 | 1012.3 |
| 20260509233604 | 59 | 177 | 2.0 | 3.0 | 0.02 | 0.39 | 0.04 | 3 | 1012.4 |
| 20260509232605 | 59 | 186 | 1.0 | 2.0 | 0.02 | 0.39 | 0.04 | 3 | 1012.5 |
| 20260509232104 | 59 | 194 | 1.0 | 3.0 | 0.02 | 0.39 | 0.04 | 3 | 1012.5 |
| 20260509231604 | 59 | 194 | 1.0 | 3.0 | 0.02 | 0.39 | 0.04 | 3 | 1012.5 |
| 20260509231104 | 59 | 168 | 3.0 | 3.0 | 0.03 | 0.39 | 0.04 | 3 | 1012.6 |
| 20260509230604 | 59 | 159 | 1.0 | 3.0 | 0.04 | 0.39 | 0.04 | 3 | 1012.5 |
| 20260509224604 | 59 | 217 | 1.0 | 2.0 | 0.04 | 0.38 | 0.03 | 3 | 1012.6 |
| 20260509224104 | 60 | 232 | 0.0 | 2.0 | 0.04 | 0.37 | 0.02 | 3 | 1012.6 |
| 20260509223604 | 60 | 265 | 0.0 | 2.0 | 0.05 | 0.37 | 0.02 | 3 | 1012.6 |
| 20260509223103 | 60 | 265 | 2.0 | 3.0 | 0.05 | 0.37 | 0.02 | 3 | 1012.6 |
| 20260509222604 | 60 | 222 | 1.0 | 3.0 | 0.06 | 0.37 | 0.02 | 3 | 1012.5 |
| 20260509222103 | 60 | 170 | 2.0 | 3.0 | 0.06 | 0.37 | 0.02 | 3 | 1012.5 |
| 20260509221604 | 60 | 170 | 1.0 | 3.0 | 0.06 | 0.36 | 0.02 | 3 | 1012.6 |
| 20260509221104 | 60 | 187 | 1.0 | 2.0 | 0.05 | 0.35 | 0.01 | 3 | 1012.7 |
| 20260509220604 | 60 | 187 | 2.0 | 3.0 | 0.04 | 0.35 | 0.00 | 3 | 1012.6 |
| 20260509220104 | 60 | 184 | 1.0 | 2.0 | 0.05 | 0.35 | 0.00 | 3 | 1012.6 |
| 20260509215603 | 60 | 180 | 1.0 | 2.0 | 0.04 | 0.34 | 0.34 | 3 | 1012.6 |
| 20260509215103 | 60 | 179 | 2.0 | 3.0 | 0.04 | 0.34 | 0.34 | 3 | 1012.6 |
| 20260509214605 | 60 | 178 | 2.0 | 3.0 | 0.04 | 0.34 | 0.34 | 3 | 1012.6 |
| 20260509214104 | 60 | 167 | 1.0 | 3.0 | 0.03 | 0.33 | 0.33 | 3 | 1012.6 |
| 20260509213604 | 59 | 167 | 0.0 | 3.0 | 0.02 | 0.32 | 0.32 | 3 | 1012.5 |
| 20260509212604 | 59 | 167 | 1.0 | 3.0 | 0.02 | 0.31 | 0.31 | 3 | 1012.5 |
| 20260509212104 | 59 | 168 | 1.0 | 3.0 | 0.02 | 0.31 | 0.31 | 3 | 1012.5 |
| 20260509211603 | 59 | 167 | 1.0 | 5.0 | 0.01 | 0.31 | 0.31 | 3 | 1012.4 |
| 20260509211104 | 59 | 145 | 1.0 | 3.0 | 0.01 | 0.31 | 0.31 | 3 | 1012.4 |
| 20260509210604 | 59 | 174 | 2.0 | 5.0 | 0.01 | 0.31 | 0.31 | 3 | 1012.4 |
| 20260509210104 | 59 | 179 | 2.0 | 5.0 | 0.01 | 0.30 | 0.30 | 3 | 1012.3 |
| 20260509205604 | 59 | 180 | 1.0 | 2.0 | 0.01 | 0.30 | 0.30 | 3 | 1012.2 |
| 20260509205104 | 59 | 180 | 1.0 | 2.0 | 0.01 | 0.30 | 0.30 | 3 | 1012.1 |
| 20260509204604 | 59 | 180 | 1.0 | 2.0 | 0.01 | 0.30 | 0.30 | 3 | 1012.0 |
| 20260509203604 | 59 | 229 | 0.0 | 2.0 | 0.01 | 0.30 | 0.30 | 3 | 1011.7 |
| 20260509203103 | 59 | 229 | 0.0 | 3.0 | 0.01 | 0.30 | 0.30 | 3 | 1011.7 |
| 20260509202604 | 59 | 232 | 1.0 | 3.0 | 0.02 | 0.30 | 0.30 | 3 | 1011.4 |
| 20260509202104 | 59 | 333 | 1.0 | 3.0 | 0.02 | 0.30 | 0.30 | 3 | 1011.3 |
| 20260509201605 | 59 | 285 | 0.0 | 2.0 | 0.02 | 0.30 | 0.30 | 3 | 1011.1 |
| 20260509201104 | 59 | 285 | 1.0 | 3.0 | 0.04 | 0.30 | 0.30 | 3 | 1011.0 |
| 20260509200604 | 59 | 272 | 3.0 | 8.0 | 0.06 | 0.30 | 0.30 | 3 | 1010.8 |
| 20260509200104 | 59 | 292 | 3.0 | 8.0 | 0.06 | 0.29 | 0.29 | 3 | 1010.6 |
| 20260509194604 | 58 | 355 | 7.0 | 13.0 | 0.08 | 0.29 | 0.29 | 3 | 1010.0 |
| 20260509194104 | 58 | 0 | 13.0 | 15.0 | 0.09 | 0.29 | 0.29 | 3 | 1009.7 |
| 20260509193604 | 58 | 6 | 12.0 | 13.0 | 0.09 | 0.29 | 0.29 | 3 | 1009.7 |
| 20260509193104 | 59 | 3 | 7.0 | 12.0 | 0.10 | 0.29 | 0.29 | 3 | 1010.3 |
| 20260509192604 | 59 | 359 | 5.0 | 8.0 | 0.10 | 0.28 | 0.28 | 3 | 1010.7 |
| 20260509192104 | 59 | 27 | 3.0 | 5.0 | 0.11 | 0.28 | 0.28 | 3 | 1010.9 |
| 20260509191604 | 59 | 33 | 1.0 | 3.0 | 0.11 | 0.28 | 0.28 | 3 | 1011.0 |
| 20260509191104 | 59 | 257 | 0.0 | 1.0 | 0.10 | 0.26 | 0.26 | 3 | 1011.1 |
| 20260509190604 | 59 | 257 | 0.0 | 2.0 | 0.10 | 0.24 | 0.24 | 3 | 1011.2 |
| 20260509190104 | 59 | 257 | 1.0 | 2.0 | 0.11 | 0.24 | 0.24 | 3 | 1011.3 |
| 20260509185604 | 58 | 110 | 0.0 | 1.0 | 0.11 | 0.23 | 0.23 | 3 | 1011.4 |
| 20260509185103 | 58 | 110 | 1.0 | 3.0 | 0.13 | 0.22 | 0.22 | 3 | 1011.4 |
| 20260509184604 | 58 | 133 | 2.0 | 6.0 | 0.13 | 0.21 | 0.21 | 3 | 1011.6 |
| 20260509183603 | 59 | 144 | 4.0 | 8.0 | 0.14 | 0.20 | 0.20 | 3 | 1011.9 |
| 20260509183104 | 59 | 149 | 3.0 | 6.0 | 0.15 | 0.19 | 0.19 | 3 | 1011.9 |
| 20260509182104 | 59 | 180 | 1.0 | 3.0 | 0.15 | 0.17 | 0.17 | 3 | 1012.0 |
| 20260509181603 | 58 | 199 | 1.0 | 3.0 | 0.15 | 0.17 | 0.17 | 3 | 1012.1 |
| 20260509181104 | 58 | 199 | 1.0 | 2.0 | 0.15 | 0.16 | 0.16 | 3 | 1012.0 |
| 20260509180604 | 58 | 199 | 1.0 | 2.0 | 0.14 | 0.14 | 0.14 | 3 | 1012.0 |
| 20260509180105 | 58 | 199 | 1.0 | 5.0 | 0.13 | 0.13 | 0.13 | 3 | 1011.9 |
| 20260509175603 | 58 | 170 | 2.0 | 5.0 | 0.12 | 0.12 | 0.12 | 3 | 1011.9 |
| 20260509175103 | 58 | 189 | 2.0 | 3.0 | 0.09 | 0.09 | 0.09 | 3 | 1011.8 |
| 20260509174604 | 59 | 173 | 2.0 | 3.0 | 0.08 | 0.08 | 0.08 | 3 | 1011.7 |
| 20260509174104 | 59 | 214 | 2.0 | 5.0 | 0.06 | 0.06 | 0.06 | 3 | 1011.7 |
| 20260509173604 | 60 | 217 | 2.0 | 5.0 | 0.06 | 0.06 | 0.06 | 3 | 1011.8 |
| 20260509172603 | 63 | 197 | 2.0 | 3.0 | 0.03 | 0.03 | 0.03 | 3 | 1011.8 |
| 20260509172103 | 63 | 175 | 1.0 | 2.0 | 0.02 | 0.02 | 0.02 | 3 | 1011.6 |
| 20260509171604 | 63 | 207 | 1.0 | 3.0 | 0.02 | 0.02 | 0.02 | 3 | 1011.5 |
| 20260509171104 | 63 | 186 | 2.0 | 3.0 | 0.01 | 0.01 | 0.01 | 3 | 1011.5 |
| 20260509170603 | 63 | 184 | 2.0 | 3.0 | 0.00 | 0.00 | 0.00 | 3 | 1011.4 |
| 20260509170104 | 63 | 200 | 2.0 | 3.0 | 0.00 | 0.00 | 0.00 | 3 | 1011.3 |
| 20260509165604 | 63 | 193 | 2.0 | 5.0 | 0.00 | 0.00 | 0.00 | 3 | 1011.3 |
| 20260509165104 | 63 | 193 | 2.0 | 3.0 | 0.00 | 0.00 | 0.00 | 3 | 1011.2 |
| 20260509163604 | 63 | 182 | 2.0 | 3.0 | 0.00 | 0.00 | 0.00 | 3 | 1010.9 |
| 20260509163104 | 63 | 203 | 2.0 | 5.0 | 0.00 | 0.00 | 0.00 | 3 | 1010.8 |
| 20260509162604 | 63 | 152 | 3.0 | 6.0 | 0.00 | 0.00 | 0.00 | 3 | 1010.6 |
| 20260509161104 | 64 | 63 | 2.0 | 3.0 | 0.00 | 0.00 | 0.00 | 3 | 1010.7 |
| 20260509160604 | 64 | 227 | 0.0 | 3.0 | 0.00 | 0.00 | 0.00 | 3 | 1010.7 |
| 20260509155604 | 64 | 84 | 3.0 | 7.0 | 0.00 | 0.00 | 0.00 | 3 | 1010.9 |
| 20260509155103 | 64 | 141 | 1.0 | 3.0 | 0.00 | 0.00 | 0.00 | 3 | 1011.1 |
| 20260509154104 | 64 | 76 | 2.0 | 6.0 | 0.00 | 0.00 | 0.00 | 3 | 1011.2 |
| 20260509153104 | 64 | 56 | 3.0 | 8.0 | 0.00 | 0.00 | 0.00 | 3 | 1011.2 |
| 20260509152104 | 64 | 41 | 4.0 | 7.0 | 0.00 | 0.00 | 0.00 | 3 | 1011.5 |
| 20260509151604 | 64 | 41 | 3.0 | 5.0 | 0.00 | 0.00 | 0.00 | 3 | 1011.7 |
| 20260509150104 | 65 | 55 | 3.0 | 7.0 | 0.00 | 0.00 | 0.00 | 3 | 1011.9 |
| 20260509145604 | 65 | 52 | 5.0 | 6.0 | 0.00 | 0.00 | 0.00 | 3 | 1011.8 |
| 20260509145104 | 65 | 151 | 1.0 | 3.0 | 0.00 | 0.00 | 0.00 | 3 | 1011.8 |
| 20260509144604 | 66 | 131 | 1.0 | 5.0 | 0.00 | 0.00 | 0.00 | 3 | 1011.9 |
| 20260509144104 | 66 | 53 | 0.0 | 3.0 | 0.00 | 0.00 | 0.00 | 3 | 1011.9 |
| 20260509143604 | 66 | 179 | 1.0 | 3.0 | 0.00 | 0.00 | 0.00 | 3 | 1011.9 |
| 20260509142104 | 66 | 143 | 2.0 | 3.0 | 0.00 | 0.00 | 0.00 | 8 | 1011.9 |
| 20260509141105 | 66 | 163 | 2.0 | 7.0 | 0.00 | 0.00 | 0.00 | 13 | 1011.8 |
| 20260509140604 | 66 | 213 | 5.0 | 8.0 | 0.00 | 0.00 | 0.00 | 15 | 1011.9 |
| 20260509140104 | 66 | 154 | 5.0 | 9.0 | 0.00 | 0.00 | 0.00 | 20 | 1011.9 |
| 20260509134604 | 66 | 164 | 5.0 | 10.0 | 0.00 | 0.00 | 0.00 | 20 | 1012.0 |
| 20260509134104 | 66 | 181 | 6.0 | 12.0 | 0.00 | 0.00 | 0.00 | 8 | 1012.0 |
| 20260509133603 | 67 | 155 | 6.0 | 10.0 | 0.00 | 0.00 | 0.00 | 9 | 1012.1 |
| 20260509133104 | 67 | 157 | 3.0 | 10.0 | 0.00 | 0.00 | 0.00 | 3 | 1012.1 |
| 20260509132604 | 67 | 156 | 2.0 | 9.0 | 0.00 | 0.00 | 0.00 | 3 | 1012.2 |
| 20260509132104 | 67 | 59 | 1.0 | 8.0 | 0.00 | 0.00 | 0.00 | 3 | 1012.3 |
| 20260509131604 | 66 | 152 | 4.0 | 8.0 | 0.00 | 0.00 | 0.00 | 3 | 1012.1 |
| 20260509131104 | 66 | 191 | 2.0 | 3.0 | 0.00 | 0.00 | 0.00 | 3 | 1012.3 |
| 20260509130104 | 66 | 120 | 3.0 | 10.0 | 0.00 | 0.00 | 0.00 | 3 | 1012.4 |
| 20260509125603 | 66 | 138 | 1.0 | 6.0 | 0.00 | 0.00 | 0.00 | 3 | 1012.5 |
| 20260509125104 | 65 | 137 | 6.0 | 10.0 | 0.00 | 0.00 | 0.00 | 3 | 1012.7 |
| 20260509124605 | 65 | 162 | 5.0 | 12.0 | 0.00 | 0.00 | 0.00 | 3 | 1012.9 |
| 20260509124103 | 65 | 134 | 4.0 | 9.0 | 0.00 | 0.00 | 0.00 | 3 | 1013.0 |
| 20260509123604 | 65 | 111 | 6.0 | 10.0 | 0.00 | 0.00 | 0.00 | 3 | 1013.1 |
| 20260509123104 | 65 | 133 | 5.0 | 12.0 | 0.00 | 0.00 | 0.00 | 3 | 1013.1 |
| 20260509122604 | 65 | 128 | 3.0 | 8.0 | 0.00 | 0.00 | 0.00 | 3 | 1013.1 |
| 20260509122104 | 65 | 133 | 5.0 | 9.0 | 0.00 | 0.00 | 0.00 | 3 | 1013.2 |
| 20260509120603 | 65 | 188 | 3.0 | 8.0 | 0.00 | 0.00 | 0.00 | 3 | 1013.2 |
| 20260509120104 | 64 | 104 | 5.0 | 10.0 | 0.00 | 0.00 | 0.00 | 3 | 1013.0 |
| 20260509115604 | 64 | 114 | 3.0 | 7.0 | 0.00 | 0.00 | 0.00 | 3 | 1013.1 |
| 20260509115104 | 64 | 178 | 5.0 | 12.0 | 0.00 | 0.00 | 0.00 | 3 | 1013.1 |
| 20260509114604 | 65 | 170 | 5.0 | 10.0 | 0.00 | 0.00 | 0.00 | 3 | 1013.1 |
| 20260509114104 | 65 | 120 | 3.0 | 9.0 | 0.00 | 0.00 | 0.00 | 3 | 1013.1 |
| 20260509113603 | 65 | 173 | 7.0 | 13.0 | 0.00 | 0.00 | 0.00 | 3 | 1013.1 |
| 20260509113104 | 66 | 167 | 6.0 | 13.0 | 0.00 | 0.00 | 0.00 | 3 | 1013.2 |
| 20260509112604 | 66 | 135 | 5.0 | 12.0 | 0.00 | 0.00 | 0.00 | 3 | 1013.2 |
| 20260509112104 | 65 | 156 | 5.0 | 13.0 | 0.00 | 0.00 | 0.00 | 3 | 1013.4 |
| 20260509111603 | 65 | 176 | 6.0 | 12.0 | 0.00 | 0.00 | 0.00 | 3 | 1013.4 |
| 20260509111104 | 65 | 131 | 7.0 | 12.0 | 0.00 | 0.00 | 0.00 | 3 | 1013.4 |
| 20260509110604 | 65 | 130 | 7.0 | 14.0 | 0.00 | 0.00 | 0.00 | 3 | 1013.4 |
| 20260509105104 | 65 | 161 | 3.0 | 12.0 | 0.00 | 0.00 | 0.00 | 3 | 1013.7 |
| 20260509104604 | 64 | 144 | 7.0 | 13.0 | 0.00 | 0.00 | 0.00 | 3 | 1013.8 |
| 20260509104108 | 65 | 162 | 8.0 | 15.0 | 0.00 | 0.00 | 0.00 | 3 | 1013.7 |
| 20260509103604 | 65 | 172 | 5.0 | 12.0 | 0.00 | 0.00 | 0.00 | 3 | 1013.6 |
| 20260509103104 | 65 | 160 | 5.0 | 14.0 | 0.00 | 0.00 | 0.00 | 3 | 1013.7 |
| 20260509102603 | 65 | 152 | 6.0 | 14.0 | 0.00 | 0.00 | 0.00 | 3 | 1013.8 |
| 20260509102104 | 65 | 179 | 5.0 | 12.0 | 0.00 | 0.00 | 0.00 | 3 | 1013.8 |
| 20260509101104 | 65 | 180 | 6.0 | 12.0 | 0.00 | 0.00 | 0.00 | 3 | 1013.6 |
| 20260509100604 | 65 | 151 | 7.0 | 13.0 | 0.00 | 0.00 | 0.00 | 3 | 1013.6 |
| 20260509100104 | 65 | 169 | 3.0 | 8.0 | 0.00 | 0.00 | 0.00 | 3 | 1013.6 |
| 20260509095604 | 65 | 136 | 8.0 | 12.0 | 0.00 | 0.00 | 0.00 | 3 | 1013.5 |
| 20260509095104 | 65 | 192 | 4.0 | 8.0 | 0.00 | 0.00 | 0.00 | 3 | 1013.6 |
| 20260509094104 | 64 | 118 | 2.0 | 8.0 | 0.00 | 0.00 | 0.00 | 3 | 1013.3 |
| 20260509093604 | 65 | 139 | 5.0 | 12.0 | 0.00 | 0.00 | 0.00 | 3 | 1013.3 |
| 20260509093104 | 65 | 133 | 5.0 | 12.0 | 0.00 | 0.00 | 0.00 | 3 | 1013.2 |
| 20260509092604 | 65 | 170 | 5.0 | 12.0 | 0.00 | 0.00 | 0.00 | 3 | 1013.1 |
| 20260509092104 | 65 | 171 | 5.0 | 12.0 | 0.00 | 0.00 | 0.00 | 3 | 1013.0 |
| 20260509091603 | 65 | 126 | 6.0 | 10.0 | 0.00 | 0.00 | 0.00 | 3 | 1013.0 |
| 20260509091104 | 64 | 149 | 6.0 | 10.0 | 0.00 | 0.00 | 0.00 | 3 | 1013.0 |
| 20260509090104 | 64 | 143 | 7.0 | 10.0 | 0.00 | 0.00 | 0.00 | 3 | 1013.1 |
| 20260509085604 | 64 | 154 | 6.0 | 10.0 | 0.00 | 0.00 | 0.00 | 3 | 1013.2 |
| 20260509085103 | 64 | 156 | 7.0 | 12.0 | 0.00 | 0.00 | 0.00 | 3 | 1013.3 |
| 20260509084604 | 64 | 136 | 6.0 | 10.0 | 0.00 | 0.00 | 0.00 | 3 | 1013.3 |
| 20260509084104 | 64 | 152 | 6.0 | 12.0 | 0.00 | 0.00 | 0.00 | 3 | 1013.4 |
| 20260509083603 | 65 | 144 | 6.0 | 12.0 | 0.00 | 0.00 | 0.00 | 3 | 1013.4 |
| 20260509083104 | 65 | 156 | 5.0 | 10.0 | 0.00 | 0.00 | 0.00 | 3 | 1013.3 |
| 20260509082604 | 64 | 157 | 5.0 | 10.0 | 0.00 | 0.00 | 0.00 | 3 | 1013.5 |
| 20260509082104 | 64 | 167 | 7.0 | 12.0 | 0.00 | 0.00 | 0.00 | 3 | 1013.4 |
| 20260509081604 | 64 | 185 | 5.0 | 8.0 | 0.00 | 0.00 | 0.00 | 3 | 1013.4 |
| 20260509081104 | 64 | 136 | 4.0 | 9.0 | 0.00 | 0.00 | 0.00 | 3 | 1013.4 |
| 20260509075604 | 64 | 177 | 3.0 | 7.0 | 0.00 | 0.00 | 0.00 | 3 | 1013.5 |
| 20260509075104 | 64 | 180 | 5.0 | 7.0 | 0.00 | 0.00 | 0.00 | 3 | 1013.4 |
| 20260509074604 | 64 | 213 | 5.0 | 8.0 | 0.00 | 0.00 | 0.00 | 3 | 1013.5 |
| 20260509074104 | 64 | 191 | 4.0 | 9.0 | 0.00 | 0.00 | 0.00 | 3 | 1013.6 |
| 20260509073604 | 63 | 177 | 5.0 | 8.0 | 0.00 | 0.00 | 0.00 | 3 | 1013.6 |
| 20260509073103 | 64 | 178 | 5.0 | 8.0 | 0.00 | 0.00 | 0.00 | 3 | 1013.6 |
| 20260509072603 | 64 | 197 | 4.0 | 8.0 | 0.00 | 0.00 | 0.00 | 3 | 1013.6 |
| 20260509072104 | 63 | 197 | 4.0 | 9.0 | 0.00 | 0.00 | 0.00 | 3 | 1013.6 |
| 20260509071604 | 63 | 209 | 5.0 | 8.0 | 0.00 | 0.00 | 0.00 | 3 | 1013.6 |
| 20260509071103 | 63 | 206 | 4.0 | 8.0 | 0.00 | 0.00 | 0.00 | 3 | 1013.5 |
| 20260509070604 | 63 | 195 | 3.0 | 9.0 | 0.00 | 0.00 | 0.00 | 3 | 1013.6 |
| 20260509070104 | 63 | 184 | 5.0 | 9.0 | 0.00 | 0.00 | 0.00 | 3 | 1013.6 |
| 20260509065104 | 63 | 178 | 3.0 | 7.0 | 0.00 | 0.00 | 0.00 | 3 | 1013.5 |
| 20260509064604 | 64 | 191 | 2.0 | 6.0 | 0.00 | 0.00 | 0.00 | 3 | 1013.5 |
| 20260509064104 | 63 | 211 | 3.0 | 5.0 | 0.00 | 0.00 | 0.00 | 3 | 1013.6 |
| 20260509063605 | 63 | 203 | 3.0 | 7.0 | 0.00 | 0.00 | 0.00 | 3 | 1013.6 |
| 20260509063104 | 63 | 210 | 4.0 | 8.0 | 0.00 | 0.00 | 0.00 | 3 | 1013.6 |
| 20260509062604 | 63 | 203 | 2.0 | 6.0 | 0.00 | 0.00 | 0.00 | 3 | 1013.7 |
| 20260509062104 | 63 | 213 | 1.0 | 3.0 | 0.00 | 0.00 | 0.00 | 3 | 1013.8 |
| 20260509061604 | 63 | 147 | 0.0 | 3.0 | 0.00 | 0.00 | 0.00 | 3 | 1013.8 |
| 20260509061104 | 63 | 178 | 0.0 | 2.0 | 0.00 | 0.00 | 0.00 | 3 | 1013.8 |
| 20260509060604 | 62 | 198 | 1.0 | 9.0 | 0.00 | 0.00 | 0.00 | 3 | 1013.8 |
| 20260509060104 | 62 | 185 | 3.0 | 6.0 | 0.00 | 0.00 | 0.00 | 3 | 1013.7 |
| 20260509055604 | 62 | 184 | 3.0 | 7.0 | 0.00 | 0.00 | 0.00 | 3 | 1013.8 |
| 20260509055104 | 62 | 178 | 3.0 | 7.0 | 0.00 | 0.00 | 0.00 | 3 | 1013.7 |
| 20260509054104 | 62 | 182 | 3.0 | 7.0 | 0.00 | 0.00 | 0.00 | 3 | 1013.6 |
| 20260509053604 | 62 | 209 | 3.0 | 6.0 | 0.00 | 0.00 | 0.00 | 3 | 1013.7 |
| 20260509053104 | 61 | 181 | 3.0 | 8.0 | 0.00 | 0.00 | 0.00 | 3 | 1013.6 |
| 20260509052604 | 61 | 196 | 2.0 | 5.0 | 0.00 | 0.00 | 0.00 | 3 | 1013.5 |
| 20260509052104 | 61 | 277 | 2.0 | 6.0 | 0.00 | 0.00 | 0.00 | 3 | 1013.5 |
| 20260509051605 | 61 | 204 | 2.0 | 5.0 | 0.00 | 0.00 | 0.00 | 3 | 1013.5 |
| 20260509051104 | 61 | 238 | 2.0 | 3.0 | 0.00 | 0.00 | 0.00 | 3 | 1013.6 |
| 20260509050604 | 61 | 210 | 2.0 | 3.0 | 0.00 | 0.00 | 0.00 | 3 | 1013.5 |
| 20260509050104 | 61 | 180 | 2.0 | 3.0 | 0.00 | 0.00 | 0.00 | 3 | 1013.4 |
| 20260509045604 | 61 | 176 | 2.0 | 3.0 | 0.00 | 0.00 | 0.00 | 3 | 1013.4 |
| 20260509045104 | 61 | 165 | 3.0 | 6.0 | 0.00 | 0.00 | 0.00 | 3 | 1013.4 |
| 20260509044603 | 61 | 168 | 2.0 | 5.0 | 0.00 | 0.00 | 0.00 | 3 | 1013.4 |
| 20260509044104 | 61 | 168 | 3.0 | 6.0 | 0.00 | 0.00 | 0.00 | 3 | 1013.3 |
| 20260509042104 | 62 | 178 | 4.0 | 10.0 | 0.00 | 0.00 | 0.00 | 3 | 1013.2 |
| 20260509041603 | 62 | 188 | 6.0 | 12.0 | 0.00 | 0.00 | 0.00 | 3 | 1013.2 |
| 20260509041104 | 62 | 178 | 5.0 | 12.0 | 0.00 | 0.00 | 0.00 | 3 | 1013.1 |
| 20260509040603 | 62 | 176 | 5.0 | 9.0 | 0.00 | 0.00 | 0.00 | 3 | 1013.1 |
| 20260509040104 | 62 | 170 | 6.0 | 12.0 | 0.00 | 0.00 | 0.00 | 3 | 1013.2 |
| 20260509035604 | 62 | 183 | 6.0 | 9.0 | 0.00 | 0.00 | 0.00 | 3 | 1013.1 |
| 20260509035104 | 62 | 191 | 5.0 | 10.0 | 0.00 | 0.00 | 0.00 | 3 | 1013.1 |
| 20260509034604 | 62 | 190 | 5.0 | 10.0 | 0.00 | 0.00 | 0.00 | 3 | 1013.1 |
| 20260509034104 | 62 | 179 | 4.0 | 12.0 | 0.00 | 0.00 | 0.00 | 3 | 1013.1 |
| 20260509033604 | 62 | 174 | 5.0 | 8.0 | 0.00 | 0.00 | 0.00 | 3 | 1013.1 |
| 20260509033105 | 62 | 182 | 5.0 | 8.0 | 0.00 | 0.00 | 0.00 | 3 | 1013.1 |
| 20260509032603 | 62 | 173 | 5.0 | 12.0 | 0.00 | 0.00 | 0.00 | 3 | 1013.1 |